Location: Nairn
(57.5833°N, 3.8667°W)
Time: 09:59:31
(UTC+00:00)

N. Korean satellite - Pass Details

Date: 28 October 2020
Orbit: 452 x 504 km, 97.2° (Epoch: 25 November)

Event Time Altitude Azimuth Distance (km) Brightness Sun altitude
Rises 17:10:59 0° 182° (S) 2,538 10.5 -5.0°
Reaches altitude 10° 17:13:08 10° 190° (S) 1,654 9.7 -5.3°
Maximum altitude 17:16:31 40° 262° (W) 712 8.2 -5.7°
Drops below altitude 10° 17:19:52 10° 333° (NNW) 1,639 9.4 -6.1°
Sets 17:21:59 0° 341° (NNW) 2,513 10.2 -6.4°
